Regional Weather Roundup
Issued by NWS Boston, MA

Home | Current Version | Previous Version | Text Only | Print | Product List | Glossary On
Versions: 1 2 3 4 5 6 7 8 9 10 11 12 13 14 15 16 17 18 19 20 21 22 23 24 25 26 27 28
000
ASUS41 KBOX 272010
RWRBOX

REGIONAL WEATHER ROUNDUP
NATIONAL WEATHER SERVICE TAUNTON MA
400 PM EDT SAT MAY 27 2017

NOTE:  "FAIR" INDICATES FEW OR NO CLOUDS BELOW 12,000 FEET WITH NO
SIGNIFICANT WEATHER AND/OR OBSTRUCTIONS TO VISIBILITY.

MAZALL-272100-
EASTERN MASSACHUSETTS

CITY           SKY/WX    TMP DP  RH WIND       PRES   REMARKS
BOSTON         MOSUNNY   60  49  66 E12       29.89R
BEVERLY        SUNNY     61  50  67 SE8       29.88S
LAWRENCE       PTSUNNY   69  52  54 SE5       29.88R
BEDFORD        PTSUNNY   67  49  52 SE8       29.85S
BLUE HILL        N/A     67  50  54 NE8       29.86S
NORWOOD        MOSUNNY   71  53  52 NE9       29.85S
MARSHFIELD     SUNNY     59  48  67 SE7       29.89S
PLYMOUTH       SUNNY     63  47  55 NE8       29.89S
TAUNTON        MOSUNNY   69  49  48 S5        29.87R
NEW BEDFORD    MOSUNNY   64  52  64 S9        29.88R
$$

MAZALL-272100-
CAPE COD AND THE ISLANDS

CITY           SKY/WX    TMP DP  RH WIND       PRES   REMARKS
FALMOUTH       SUNNY     64  48  55 MISG      29.89F
HYANNIS        SUNNY     63  48  58 N8        29.88S
CHATHAM        MOSUNNY   58  49  72 NE7       29.90S
PROVINCETOWN   SUNNY     58  47  66 N6        29.91R
NANTUCKET      MOSUNNY   60  49  66 N6        29.90S
MARTHAS VNYRD  MOSUNNY   62  50  64 CALM      29.89R
$$

MAZALL-272100-
CENTRAL AND WESTERN MASSACHUSETTS

CITY           SKY/WX    TMP DP  RH WIND       PRES   REMARKS
WORCESTER      CLOUDY    65  44  46 E3        29.88S
FITCHBURG      CLOUDY    71  49  45 NE3       29.86S
ORANGE         CLOUDY    70  51  51 NW8       29.86S
SPRINGFIELD    PTSUNNY   69  50  50 CALM      29.86S
WESTFIELD      CLOUDY    69  50  50 SE3       29.87S
NORTH ADAMS    CLOUDY    69  52  54 VRB5      29.85F
$$

RIZALL-272100-
RHODE ISLAND

CITY           SKY/WX    TMP DP  RH WIND       PRES   REMARKS
PROVIDENCE     PTSUNNY   66  52  60 S7        29.88R
NEWPORT        MOSUNNY   64  53  67 VRB7      29.88S
BLOCK ISLAND   CLOUDY    64  49  57 W8        29.90S
SMITHFIELD     MOSUNNY   68  50  52 CALM      29.88S
WESTERLY       PTSUNNY   65  50  58 S9        29.90R
$$

CTZALL-272100-
CONNECTICUT

CITY           SKY/WX    TMP DP  RH WIND       PRES   REMARKS
BRADLEY INTL   CLOUDY    69  49  48 VRB3      29.88S
HARTFORD       CLOUDY    69  51  52 NE5       29.87F
BRIDGEPORT     CLOUDY    64  53  67 SE12      29.88S
DANBURY        CLOUDY    67  53  61 N3        29.88S
GROTON         PTSUNNY   62  52  69 S9        29.88S
NEW HAVEN      MOSUNNY   66  54  65 S10       29.88S
CHESTER        PTSUNNY   66  52  59 S6        29.89S
MERIDEN        CLOUDY    67  54  63 S8        29.87S
WILLIMANTIC    CLOUDY    70  51  51 SW5       29.88S
OXFORD         PTSUNNY   66  52  59 SE7       29.89S
$$

MEZ002-015-021-024-NHZ003-005-008-011-012-014-VTZ005-008-272100-
NORTHERN NEW ENGLAND

CITY           SKY/WX    TMP DP  RH WIND       PRES   REMARKS
PORTLAND ME    MOSUNNY   57  47  69 S12       29.88R
BANGOR ME      PTSUNNY   62  47  57 E6        29.85F
CONCORD NH     CLOUDY    71  48  43 VRB5      29.85S
MANCHESTER NH  PTSUNNY   71  46  40 CALM      29.84S
NASHUA NH      CLOUDY    70  50  49 W3        29.86S
PORTSMOUTH NH  PTSUNNY   60  48  64 E10       29.86S
JAFFREY NH     CLOUDY    67  50  54 VRB6      29.87S
KEENE NH       CLOUDY    69  49  48 VRB3      29.86F
BURLINGTON VT  PTSUNNY   72  47  40 NW9       29.86F
MT. WASHINGTON PTSUNNY   41  37  87 N9          N/A
$$

NYZ052-076-272100-
EASTERN NEW YORK

CITY           SKY/WX    TMP DP  RH WIND       PRES   REMARKS
ALBANY         PTSUNNY   70  50  49 N6        29.87F
NEW YORK CITY  PTSUNNY   71  53  52 N5        29.86S
$$

ANZALL-272100-
MARINE OBSERVATIONS

STATION/POSITION TIME  TEMP    WIND        PRES    VSBY  WAVE
                       AIR SEA DIR/SP/G                  HT/PER
                 (UTC) (F)     (DEG/KT/KT) (MB)    (MI)  (FT/S)
BOSTON BUOY      1950   53 54  130/  8/ 10 1012.1R         2/ 8
BUZZARDS BAY     1900   56     200/  9/  9 1012.3F
NANTUCKET SOUND  1950      54              1012.2R         1/ 7
MASS BAY-STELLWA 1904   52 51  150/  8/ 10 1011.3R         2/10
ISLE OF SHOALS   1900   51     150/ 10/ 11 1011.7R
S OF BLOCK IS    1955      57                N/A           4/ 7
$$

......................KEY.........................
  SKY/WX - SKY CONDITION/PRESENT WEATHER
  TMP    - TEMPERATURE IN FAHRENHEIT
  DWPT   - DEWPOINT IN FAHRENHEIT
  RH     - RELATIVE HUMIDITY IN PERCENT
  WIND   - DIRECTION AND SPEED IN MPH
  PRES   - MEAN SEA LEVEL PRESSURE IN INCHES OF HG
  WCI    - WIND CHILL INDEX
  VSB    - VISIBILITY IN MILES
  HX     - HEAT INDEX
  TC     - TEMPERATURE IN CELSIUS
  VRB    - VARIABLE WIND DIRECTION
  N/A    - NOT AVAILABLE




USA.gov is the U.S. government's official web portal to all federal, state and local government web resources and services.